Regional Weather Roundup
Issued by NWS Sterling, VA

Home | Current Version | Previous Version | Graphics & Text | Print | Product List | Glossary On
Versions: 1 2 3 4 5 6 7 8 9 10 11 12 13 14 15 16 17 18 19 20 21 22 23 24 25 26 27
000
ASUS41 KLWX 192311
RWRLWX

REGIONAL WEATHER ROUNDUP
NATIONAL WEATHER SERVICE BALTIMORE MD/WASHINGTON DC
600 PM EST FRI JAN 19 2018

Note: "FAIR" indicates few or no clouds below 12,000 feet
with no significant weather and/or obstructions to visibility.
 TC=TEMPERATURE CELSIUS

 * =Non NWS site. Station does not report precipitation (e.g. rain,
    snow, etc.), thunder, or fog.

DCZ001-MDZ009-015-VAZ040>042-051-053>054-200000-
WASHINGTON METRO

CITY           SKY/WX    TMP DP  RH WIND       PRES   REMARKS
WASHINGTON NAT FAIR      45  13  27 S7        30.05R
DULLES         FAIR      38  12  34 S5        30.03S WCI  34
ANDREWS AFB    FAIR      40  12  31 S7        30.03S
FT BELVOIR     FAIR      39  12  32 CALM      30.04S
COLLEGE PARK*  FAIR      38  13  36 CALM      30.03F
LEESBURG*      FAIR      46  19  34 CALM      30.03S
MANASSAS*      FAIR      36  15  42 SE5       30.04R WCI  32
GAITHERSBURG*  FAIR      42  13  30 CALM      30.03S

$$

MDZ006>007-011-014-200000-
BALTIMORE METRO

CITY           SKY/WX    TMP DP  RH WIND       PRES   REMARKS
BWI AIRPORT    FAIR      42  17  36 S5        30.03R
MD SCIENCE CTR   N/A     46  16  30 MISG      30.03S
MARTIN STATE   PTCLDY    39  23  52 SE8       30.05S WCI  34
ANNAPOLIS      FAIR      40  22  48 SE3       30.04F
FORT MEADE*    FAIR      36  19  51 S3        30.06S

$$

MDZ012-015-019>023-200000-
MARYLAND EASTERN SHORE

CITY           SKY/WX    TMP DP  RH WIND       PRES   REMARKS
OCEAN CITY     FAIR      34  20  56 CALM      30.08R
SALISBURY      FAIR      34  21  59 CALM      30.07R
BAY BRIDGE AP* FAIR      37  21  52 S5        30.05S WCI  34
CAMBRIDGE*     CLEAR     36  21  55 SE6       30.07S WCI  31
EASTON*        CLEAR     41  16  36 SW6       30.09S

$$

MDZ017>025-200000-
SOUTHERN MARYLAND

CITY           SKY/WX    TMP DP  RH WIND       PRES   REMARKS
PATUXENT RIVER PTCLDY    37  18  46 S6        30.06S WCI  32
ST INIGOES     FAIR      36  16  44 E6        30.06S WCI  31
LEONARDTOWN*   FAIR      36  19  51 CALM      30.08R

$$

MDZ003>005-200000-
NORTH CENTRAL MARYLAND

CITY           SKY/WX    TMP DP  RH WIND       PRES   REMARKS
FREDERICK*     CLEAR     43  10  26 CALM      30.05S
HAGERSTOWN APT FAIR      45  17  32 SW5       30.01S
WESTMINSTER*   FAIR      43  18  36 SW3       30.01S

$$

MDZ501>502-200000-
WESTERN MARYLAND

CITY           SKY/WX    TMP DP  RH WIND       PRES   REMARKS
OAKLAND*       FAIR      30  18  59 W13G21    29.97S WCI  20
CUMBERLAND*    FAIR      41  21  45 SW8       30.07S

$$

VAZ025>031-200000-
SHENANDOAH VALLEY

CITY           SKY/WX    TMP DP  RH WIND       PRES   REMARKS
WINCHESTER*    FAIR      39  16  38 CALM      30.03S
FRONT ROYAL*   FAIR      50   9  18 SE3       30.00F
LURAY*         FAIR      45  10  24 SW5       30.01S
NEW MARKET*    FAIR      42   8  24 W3        30.01R
STAUNTON*      FAIR      44   6  21 SW10      30.04S
WAYNESBORO*    FAIR      44   2  17 SW7       30.03S

$$

WVZ021-048>050-054>055-200000-
EASTERN WEST VIRGINIA PANHANDLE

CITY           SKY/WX    TMP DP  RH WIND       PRES   REMARKS
MARTINSBURG    FAIR      45  19  35 W6        30.01S
PETERSBURG*    FAIR      40  20  45 CALM      30.03S

$$

VAZ036>039-050-200000-
CENTRAL FOOTHILLS

CITY           SKY/WX    TMP DP  RH WIND       PRES   REMARKS
CHARLOTTESVILL FAIR      50   3  14 VRB3      30.03R
CULPEPER*      FAIR      37  12  35 CALM      30.04S
ORANGE*        FAIR      46   7  19 CALM      30.04R
GORDONSVILLE*  FAIR      40  13  33 CALM      30.04R
WARRENTON*     FAIR      35   5  28 CALM      30.03R

$$

VAZ055>057-200000-
NORTH AND CENTRAL PIEDMONT

CITY           SKY/WX    TMP DP  RH WIND       PRES   REMARKS
FREDERICKSBRG* FAIR      46  12  25 SW6       30.04S
STAFFORD*      FAIR      47   6  18 SW3       30.08S

$$

NCZ024-NYZ072-PAZ021-071-VAZ022-071-200000-
OTHER REGIONAL OBSERVATIONS

CITY           SKY/WX    TMP DP  RH WIND       PRES   REMARKS
NEW YORK CITY  FAIR      37  17  44 VRB5      30.00S WCI  33
PHILADELPHIA   FAIR      40  19  43 SW7       30.02S
PITTSBURGH     FAIR      37  18  46 SW7       30.00S WCI  32
ROANOKE        FAIR      46  11  24 W10       30.10R
RICHMOND       FAIR      47   8  20 SW5       30.07R
RALEIGH        FAIR      42  24  49 SW6       30.13F

$$

ANZ530>537-200000-
MARINE OBSERVATIONS

STATION/POSITION TIME  TEMP    WIND        PRES
                       AIR SEA DIR/SP/G
                 (UTC) (F)     (DEG/KT/KT) (MB)
THOMAS PT LIGHT  2300   36 32  190/ 10/ 11   N/A
BALT KEY BRIDGE  2248                      1016.9S
COVE POINT       2248                      1018.6F
LEWISETTA        2248      32              1018.0R
SOLOMONS ISLAND  2248      35              1017.7R
PINEY POINT      2230          110/  8/  8   N/A

$$





USA.gov is the U.S. government's official web portal to all federal, state and local government web resources and services.